Weather History for KJMR - May, 2013

Change the Weather History Date:

Friday, May 17, 2013

  Actual Average Record
Temperature  
Mean Temperature 56 °F -  
Max Temperature 64 °F 72 °F 89 °F (1972)
Min Temperature 48 °F 41 °F 27 °F (1973)
Degree Days  
Heating Degree Days 9    
Growing Degree Days 6 (Base 50)    
Moisture  
Dew Point 41 °F    
Average Humidity 58    
Maximum Humidity 88    
Minimum Humidity 31    
Precipitation  
Precipitation 0.00 in - - ()
Sea Level Pressure  
Sea Level Pressure 30.01 in    
Wind  
Wind Speed 7 mph (ESE)    
Max Wind Speed 14 mph    
Max Gust Speed 20 mph    
Visibility 10 miles    
Events Rain    
Averages and records for this station are not official NWS values.
T = Trace of Precipitation, MM = Missing Value Source: NWS Daily Summary

Daily Weather History Graph

Daily Weather History Graph

Search for Another Location

Airport or City:

Trip Planner

Search our weather history database for the weather conditions in past years. The results will help you decide how hot, cold, wet, or windy it might be!

Date:

Astronomy

May. 17, 2013 Rise Set
Actual Time 5:38 AM CDT 8:40 PM CDT
Civil Twilight 5:03 AM CDT 9:16 PM CDT
Nautical Twilight 4:18 AM CDT 10:02 PM CDT
Astronomical Twilight 3:23 AM CDT 10:57 PM CDT
Moon 12:21 PM CDT (5/17) 1:25 AM CDT (5/17)
Length of Visible Light 16h 12m
Length of Day
15h 02m
Waxing Crescent, 45% of the Moon is Illuminated
May 17
Waxing Crescent
May 17
First Quarter
May 24
Full
May 31
Last Quarter
Jun 8
New

Hourly Weather History & Observations

Time (CDT) Temp. Dew Point Humidity Pressure Visibility Wind Dir Wind Speed Gust Speed Precip Events Conditions
12:11 AM 59.0 °F 28.4 °F 31% 29.97 in 10.0 mi East 4.6 mph - N/A   Clear
12:31 AM 59.0 °F 28.4 °F 31% 29.97 in 10.0 mi East 4.6 mph - N/A   Scattered Clouds
12:51 AM 59.0 °F 28.4 °F 31% 29.98 in 10.0 mi East 4.6 mph - N/A   Mostly Cloudy
1:11 AM 59.0 °F 28.4 °F 31% 29.98 in 10.0 mi ENE 3.5 mph - N/A   Mostly Cloudy
1:31 AM 55.4 °F 28.4 °F 36% 29.98 in 10.0 mi ENE 3.5 mph - N/A   Scattered Clouds
1:51 AM 55.4 °F 28.4 °F 36% 29.97 in 10.0 mi ENE 6.9 mph - N/A   Scattered Clouds
2:11 AM 55.4 °F 28.4 °F 36% 29.97 in 10.0 mi ENE 4.6 mph - N/A   Mostly Cloudy
2:31 AM 53.6 °F 32.0 °F 44% 29.98 in 10.0 mi ENE 4.6 mph - N/A   Mostly Cloudy
2:51 AM 53.6 °F 33.8 °F 47% 29.98 in 10.0 mi ENE 4.6 mph - N/A   Overcast
3:11 AM 50.0 °F 32.0 °F 50% 29.98 in 10.0 mi ENE 4.6 mph - N/A   Mostly Cloudy
3:31 AM 50.0 °F 33.8 °F 54% 29.98 in 10.0 mi ENE 4.6 mph - N/A   Scattered Clouds
3:51 AM 50.0 °F 33.8 °F 54% 29.98 in 10.0 mi ENE 4.6 mph - N/A   Clear
4:11 AM 50.0 °F 33.8 °F 54% 29.98 in 10.0 mi ENE 5.8 mph - N/A   Scattered Clouds
4:31 AM 50.0 °F 33.8 °F 54% 29.98 in 10.0 mi ENE 5.8 mph - N/A   Mostly Cloudy
4:51 AM 50.0 °F 33.8 °F 54% 29.99 in 10.0 mi ENE 5.8 mph - N/A   Overcast
5:11 AM 48.2 °F 32.0 °F 54% 29.98 in 10.0 mi ENE 6.9 mph - N/A   Overcast
5:31 AM 48.2 °F 32.0 °F 54% 29.99 in 10.0 mi ENE 8.1 mph - N/A   Overcast
5:51 AM 48.2 °F 32.0 °F 54% 30.02 in 10.0 mi East 4.6 mph - N/A   Overcast
6:11 AM 48.2 °F 32.0 °F 54% 30.02 in 10.0 mi East 6.9 mph - N/A   Overcast
6:30 AM 48.2 °F 33.8 °F 58% 30.02 in 10.0 mi ENE 4.6 mph - N/A   Overcast
7:11 AM 50.0 °F 33.8 °F 54% 30.01 in 10.0 mi ENE 8.1 mph - N/A   Scattered Clouds
7:31 AM 50.0 °F 33.8 °F 54% 30.02 in 10.0 mi East 8.1 mph - N/A   Mostly Cloudy
7:51 AM 51.8 °F 35.6 °F 54% 30.02 in 10.0 mi East 6.9 mph - N/A   Overcast
8:11 AM 53.6 °F 35.6 °F 51% 30.02 in 10.0 mi East 10.4 mph - N/A   Overcast
8:31 AM 53.6 °F 35.6 °F 51% 30.03 in 10.0 mi ENE 6.9 mph - N/A   Overcast
8:51 AM 53.6 °F 35.6 °F 51% 30.03 in 10.0 mi East 5.8 mph - N/A   Overcast
9:11 AM 55.4 °F 35.6 °F 47% 30.03 in 10.0 mi East 6.9 mph - N/A   Mostly Cloudy
9:31 AM 57.2 °F 37.4 °F 48% 30.03 in 10.0 mi East 8.1 mph - N/A   Scattered Clouds
9:51 AM 60.8 °F 39.2 °F 45% 30.03 in 10.0 mi ESE 9.2 mph 17.3 mph N/A   Mostly Cloudy
10:11 AM 62.6 °F 41.0 °F 45% 30.02 in 10.0 mi East 9.2 mph - N/A   Overcast
10:31 AM 62.6 °F 42.8 °F 48% 30.02 in 10.0 mi ESE 11.5 mph 17.3 mph N/A   Scattered Clouds
10:51 AM 64.4 °F 44.6 °F 49% 30.02 in 10.0 mi ESE 9.2 mph - N/A   Clear
11:11 AM 64.4 °F 42.8 °F 45% 30.02 in 10.0 mi ESE 12.7 mph 19.6 mph N/A   Clear
11:31 AM 64.4 °F 42.8 °F 45% 30.02 in 10.0 mi ESE 10.4 mph 19.6 mph N/A   Mostly Cloudy
11:51 AM 64.4 °F 44.6 °F 49% 30.02 in 10.0 mi ESE 11.5 mph 19.6 mph N/A   Overcast
12:11 PM 64.4 °F 44.6 °F 49% 30.02 in 10.0 mi ESE 9.2 mph 18.4 mph N/A   Overcast
12:31 PM 64.4 °F 44.6 °F 49% 30.02 in 10.0 mi SE 11.5 mph 18.4 mph N/A   Overcast
12:51 PM 64.4 °F 44.6 °F 49% 30.02 in 10.0 mi ESE 11.5 mph 16.1 mph N/A   Overcast
1:11 PM 64.4 °F 44.6 °F 49% 30.02 in 10.0 mi SE 9.2 mph - N/A   Overcast
1:31 PM 64.4 °F 44.6 °F 49% 30.02 in 10.0 mi SE 11.5 mph 19.6 mph N/A   Overcast
2:11 PM 64.4 °F 46.4 °F 52% 30.02 in 10.0 mi SE 6.9 mph 18.4 mph N/A   Overcast
2:31 PM 64.4 °F 44.6 °F 49% 30.01 in 10.0 mi SSE 8.1 mph - N/A   Overcast
2:51 PM 64.4 °F 46.4 °F 52% 30.01 in 10.0 mi SSE 9.2 mph - N/A   Overcast
3:11 PM 64.4 °F 46.4 °F 52% 30.01 in 10.0 mi SSE 9.2 mph - N/A   Overcast
3:31 PM 64.4 °F 46.4 °F 52% 30.00 in 10.0 mi South 11.5 mph 16.1 mph N/A   Overcast
3:51 PM 64.4 °F 48.2 °F 56% 30.01 in 10.0 mi SSE 8.1 mph - N/A   Overcast
4:11 PM 64.4 °F 50.0 °F 59% 30.01 in 10.0 mi South 9.2 mph - N/A   Overcast
4:31 PM 62.6 °F 48.2 °F 59% 30.01 in 10.0 mi SE 10.4 mph - N/A   Overcast
4:51 PM 62.6 °F 48.2 °F 59% 30.01 in 10.0 mi SSE 6.9 mph - N/A   Overcast
5:11 PM 62.6 °F 48.2 °F 59% 30.01 in 10.0 mi SSE 9.2 mph - N/A   Overcast
5:31 PM 60.8 °F 46.4 °F 59% 30.01 in 10.0 mi SSE 6.9 mph - N/A   Overcast
5:51 PM 59.0 °F 48.2 °F 67% 30.01 in 10.0 mi SSE 5.8 mph - N/A   Overcast
6:11 PM 59.0 °F 50.0 °F 72% 30.02 in 10.0 mi SSE 8.1 mph - N/A Rain Light Rain
6:31 PM 55.4 °F 50.0 °F 82% 30.02 in 10.0 mi SE 3.5 mph - N/A   Overcast
6:51 PM 55.4 °F 50.0 °F 82% 30.02 in 10.0 mi ESE 4.6 mph - N/A   Overcast
7:11 PM 55.4 °F 50.0 °F 82% 30.01 in 10.0 mi ESE 6.9 mph - N/A   Overcast
7:31 PM 55.4 °F 50.0 °F 82% 30.01 in 10.0 mi East 9.2 mph - N/A   Overcast
7:51 PM 55.4 °F 50.0 °F 82% 30.01 in 10.0 mi ESE 6.9 mph - N/A   Overcast
8:11 PM 55.4 °F 50.0 °F 82% 30.00 in 10.0 mi ESE 5.8 mph - N/A   Overcast
8:31 PM 55.4 °F 50.0 °F 82% 30.00 in 10.0 mi ESE 8.1 mph - N/A   Overcast
8:51 PM 55.4 °F 50.0 °F 82% 30.00 in 10.0 mi East 9.2 mph - N/A   Overcast
9:11 PM 55.4 °F 50.0 °F 82% 30.00 in 10.0 mi ESE 13.8 mph - N/A   Overcast
9:31 PM 55.4 °F 50.0 °F 82% 30.01 in 10.0 mi ESE 9.2 mph - N/A   Overcast
9:51 PM 55.4 °F 50.0 °F 82% 30.01 in 10.0 mi ESE 8.1 mph 17.3 mph N/A   Overcast
10:11 PM 55.4 °F 50.0 °F 82% 30.02 in 10.0 mi ESE 8.1 mph - N/A   Overcast
10:31 PM 55.4 °F 50.0 °F 82% 30.01 in 10.0 mi ESE 8.1 mph - N/A   Drizzle
10:51 PM 55.4 °F 51.8 °F 88% 30.01 in 10.0 mi ESE 9.2 mph - N/A   Overcast
11:11 PM 55.4 °F 51.8 °F 88% 30.01 in 10.0 mi ESE 8.1 mph - N/A   Overcast
11:31 PM 55.4 °F 50.0 °F 82% 30.01 in 10.0 mi East 9.2 mph - N/A   Overcast
11:51 PM 53.6 °F 50.0 °F 88% 30.00 in 10.0 mi ESE 8.1 mph - N/A   Overcast